Time,TemperatureF,DewpointF,PressureIn,WindDirection,WindDirectionDegrees,WindSpeedMPH,WindSpeedGustMPH,Humidity,HourlyPrecipIn,Conditions,Clouds,dailyrainin,SoftwareType,DateUTC
2013-10-01 00:00:00,52.7,35.6,29.83,SSE,149,0.0,0.0,52,0.00,,---,0.00,VWS V12.07,2013-10-01 04:00:00,
2013-10-01 00:03:00,52.7,35.6,29.83,SSE,150,0.0,0.0,52,0.00,,---,0.00,VWS V12.07,2013-10-01 04:03:00,
2013-10-01 00:06:00,52.7,35.6,29.83,SSE,149,0.0,0.0,52,0.00,,---,0.00,VWS V12.07,2013-10-01 04:06:00,
2013-10-01 00:12:00,52.7,36.1,29.80,SSE,149,0.0,0.0,53,0.00,,---,0.00,VWS V12.07,2013-10-01 04:12:00,
2013-10-01 00:15:00,52.7,36.1,29.80,SSE,150,0.0,0.0,53,0.00,,---,0.00,VWS V12.07,2013-10-01 04:15:00,
2013-10-01 00:18:00,52.5,35.4,29.80,SSE,149,0.0,0.0,52,0.00,,---,0.00,VWS V12.07,2013-10-01 04:18:00,
2013-10-01 00:23:00,52.5,35.9,29.80,SSE,149,0.0,0.0,53,0.00,,---,0.00,VWS V12.07,2013-10-01 04:23:00,
2013-10-01 00:29:00,52.5,35.9,29.80,SSE,150,0.0,0.0,53,0.00,,---,0.00,VWS V12.07,2013-10-01 04:29:00,
2013-10-01 00:35:00,52.5,35.9,29.80,SSE,150,0.0,0.0,53,0.00,,---,0.00,VWS V12.07,2013-10-01 04:35:00,
2013-10-01 00:41:00,52.5,35.9,29.80,SSE,150,0.0,0.0,53,0.00,,---,0.00,VWS V12.07,2013-10-01 04:41:00,
2013-10-01 00:47:00,52.5,36.4,29.80,SSE,149,0.0,0.0,54,0.00,,---,0.00,VWS V12.07,2013-10-01 04:47:00,
2013-10-01 00:53:00,52.5,35.9,29.80,SSE,150,0.0,0.0,53,0.00,,---,0.00,VWS V12.07,2013-10-01 04:53:00,
2013-10-01 00:58:00,52.3,35.7,29.80,SSE,150,0.0,0.0,53,0.00,,---,0.00,VWS V12.07,2013-10-01 04:58:00,
2013-10-01 01:04:00,52.3,35.7,29.80,SSE,149,0.0,0.0,53,0.00,,---,0.00,VWS V12.07,2013-10-01 05:04:00,
2013-10-01 01:10:00,52.3,35.7,29.80,SSE,149,0.0,0.0,53,0.00,,---,0.00,VWS V12.07,2013-10-01 05:10:00,
2013-10-01 01:16:00,52.2,35.6,29.80,SSE,150,0.0,0.0,53,0.00,,---,0.00,VWS V12.07,2013-10-01 05:16:00,
2013-10-01 01:22:00,52.2,35.6,29.80,SSE,150,0.0,0.0,53,0.00,,---,0.00,VWS V12.07,2013-10-01 05:22:00,
2013-10-01 01:29:00,52.2,36.0,29.80,SSE,157,0.0,0.0,54,0.00,,---,0.00,VWS V12.07,2013-10-01 05:29:00,
2013-10-01 01:34:00,52.2,36.0,29.80,SSE,157,0.0,0.0,54,0.00,,---,0.00,VWS V12.07,2013-10-01 05:34:00,
2013-10-01 01:40:00,52.2,36.0,29.80,SSE,156,0.0,0.0,54,0.00,,---,0.00,VWS V12.07,2013-10-01 05:40:00,
2013-10-01 01:46:00,52.2,36.0,29.80,SSE,156,0.0,0.0,54,0.00,,---,0.00,VWS V12.07,2013-10-01 05:46:00,
2013-10-01 01:52:00,52.2,36.0,29.80,SSE,156,0.0,0.0,54,0.00,,---,0.00,VWS V12.07,2013-10-01 05:52:00,
2013-10-01 01:58:00,52.0,35.9,29.80,SSE,156,0.0,0.0,54,0.00,,---,0.00,VWS V12.07,2013-10-01 05:58:00,
2013-10-01 02:05:00,52.2,36.0,29.80,SSE,156,0.0,0.0,54,0.00,,---,0.00,VWS V12.07,2013-10-01 06:05:00,
2013-10-01 02:10:00,52.0,35.9,29.80,SSE,156,0.0,0.0,54,0.00,,---,0.00,VWS V12.07,2013-10-01 06:10:00,
2013-10-01 02:16:00,51.6,35.5,29.80,SSE,157,0.0,0.0,54,0.00,,---,0.00,VWS V12.07,2013-10-01 06:16:00,
2013-10-01 02:22:00,51.4,35.4,29.80,SSE,157,0.0,0.0,54,0.00,,---,0.00,VWS V12.07,2013-10-01 06:22:00,
2013-10-01 02:31:00,51.3,35.7,29.80,SSE,157,0.0,0.0,55,0.00,,---,0.00,VWS V12.07,2013-10-01 06:31:00,
2013-10-01 02:36:00,51.3,35.7,29.80,WNW,295,3.1,3.6,55,0.00,,---,0.00,VWS V12.07,2013-10-01 06:36:00,
2013-10-01 02:42:00,51.3,35.7,29.77,WNW,295,0.0,3.6,55,0.00,,---,0.00,VWS V12.07,2013-10-01 06:42:00,
2013-10-01 02:48:00,51.1,35.5,29.77,WNW,295,0.0,0.0,55,0.00,,---,0.00,VWS V12.07,2013-10-01 06:48:00,
2013-10-01 02:54:00,51.1,35.5,29.77,WNW,295,0.0,0.0,55,0.00,,---,0.00,VWS V12.07,2013-10-01 06:54:00,
2013-10-01 03:00:00,51.3,35.7,29.77,WNW,295,0.0,0.0,55,0.00,,---,0.00,VWS V12.07,2013-10-01 07:00:00,
2013-10-01 03:06:00,51.3,36.1,29.77,WNW,295,0.0,0.0,56,0.00,,---,0.00,VWS V12.07,2013-10-01 07:06:00,
2013-10-01 03:12:00,51.4,36.3,29.77,WNW,298,0.0,0.0,56,0.00,,---,0.00,VWS V12.07,2013-10-01 07:12:00,
2013-10-01 03:18:00,51.6,36.9,29.77,WNW,298,0.0,0.0,57,0.00,,---,0.00,VWS V12.07,2013-10-01 07:18:00,
2013-10-01 03:24:00,51.8,37.1,29.77,NW,305,0.0,2.2,57,0.00,,---,0.00,VWS V12.07,2013-10-01 07:24:00,
2013-10-01 03:31:00,52.2,37.8,29.77,SW,226,0.0,0.0,58,0.00,,---,0.00,VWS V12.07,2013-10-01 07:31:00,
2013-10-01 03:36:00,52.5,38.6,29.77,SW,234,0.0,0.0,59,0.00,,---,0.00,VWS V12.07,2013-10-01 07:36:00,
2013-10-01 03:42:00,52.7,38.8,29.77,West,265,0.0,0.0,59,0.00,,---,0.00,VWS V12.07,2013-10-01 07:42:00,
2013-10-01 03:48:00,52.7,38.8,29.77,West,265,0.0,0.0,59,0.00,,---,0.00,VWS V12.07,2013-10-01 07:48:00,
2013-10-01 03:54:00,52.7,38.8,29.77,West,265,0.0,0.0,59,0.00,,---,0.00,VWS V12.07,2013-10-01 07:54:00,
2013-10-01 04:00:00,52.5,39.0,29.77,West,265,0.0,0.0,60,0.00,,---,0.00,VWS V12.07,2013-10-01 08:00:00,
2013-10-01 04:06:00,52.3,38.9,29.77,West,265,0.0,0.0,60,0.00,,---,0.00,VWS V12.07,2013-10-01 08:06:00,
2013-10-01 04:13:00,52.2,38.7,29.77,West,265,0.0,0.0,60,0.00,,---,0.00,VWS V12.07,2013-10-01 08:13:00,
2013-10-01 04:18:00,52.2,39.1,29.77,West,265,0.0,0.0,61,0.00,,---,0.00,VWS V12.07,2013-10-01 08:18:00,
2013-10-01 04:25:00,52.2,39.1,29.77,West,265,0.0,0.0,61,0.00,,---,0.00,VWS V12.07,2013-10-01 08:25:00,
2013-10-01 04:31:00,52.0,39.0,29.77,West,265,0.0,0.0,61,0.00,,---,0.00,VWS V12.07,2013-10-01 08:31:00,
2013-10-01 04:37:00,52.0,39.0,29.77,West,265,0.0,0.0,61,0.00,,---,0.00,VWS V12.07,2013-10-01 08:37:00,
2013-10-01 04:43:00,52.0,39.4,29.77,West,265,0.0,0.0,62,0.00,,---,0.00,VWS V12.07,2013-10-01 08:43:00,
2013-10-01 04:49:00,51.8,39.2,29.77,West,265,0.0,0.0,62,0.00,,---,0.00,VWS V12.07,2013-10-01 08:49:00,
2013-10-01 04:55:00,52.0,39.4,29.77,West,265,0.0,0.0,62,0.00,,---,0.00,VWS V12.07,2013-10-01 08:55:00,
2013-10-01 05:01:00,52.0,39.4,29.77,West,265,0.0,0.0,62,0.00,,---,0.00,VWS V12.07,2013-10-01 09:01:00,
2013-10-01 05:07:00,51.8,39.2,29.77,West,265,0.0,0.0,62,0.00,,---,0.00,VWS V12.07,2013-10-01 09:07:00,
2013-10-01 05:13:00,51.6,39.5,29.77,West,265,0.0,0.0,63,0.00,,---,0.00,VWS V12.07,2013-10-01 09:13:00,
2013-10-01 05:21:00,51.6,39.5,29.77,West,265,0.0,0.0,63,0.00,,---,0.00,VWS V12.07,2013-10-01 09:21:00,
2013-10-01 05:27:00,51.6,39.8,29.77,West,265,0.0,0.0,64,0.00,,---,0.00,VWS V12.07,2013-10-01 09:27:00,
2013-10-01 05:33:00,51.6,39.8,29.77,West,265,0.0,0.0,64,0.00,,---,0.00,VWS V12.07,2013-10-01 09:33:00,
2013-10-01 05:39:00,51.6,39.8,29.77,West,265,0.0,0.0,64,0.00,,---,0.00,VWS V12.07,2013-10-01 09:39:00,
2013-10-01 05:45:00,51.4,39.7,29.77,West,265,0.0,0.0,64,0.00,,---,0.00,VWS V12.07,2013-10-01 09:45:00,
2013-10-01 05:52:00,51.4,39.7,29.77,West,265,0.0,0.0,64,0.00,,---,0.00,VWS V12.07,2013-10-01 09:52:00,
2013-10-01 05:58:00,51.3,39.5,29.77,West,265,0.0,0.0,64,0.00,,---,0.00,VWS V12.07,2013-10-01 09:58:00,
2013-10-01 06:03:00,51.3,39.9,29.77,West,265,0.0,0.0,65,0.00,,---,0.00,VWS V12.07,2013-10-01 10:03:00,
2013-10-01 06:10:00,51.1,39.7,29.77,West,265,0.0,0.0,65,0.00,,---,0.00,VWS V12.07,2013-10-01 10:10:00,
2013-10-01 06:16:00,51.1,39.7,29.77,West,265,0.0,0.0,65,0.00,,---,0.00,VWS V12.07,2013-10-01 10:16:00,
2013-10-01 06:22:00,50.9,40.0,29.77,West,265,0.0,0.0,66,0.00,,---,0.00,VWS V12.07,2013-10-01 10:22:00,
2013-10-01 06:28:00,50.9,40.0,29.77,West,265,0.0,0.0,66,0.00,,---,0.00,VWS V12.07,2013-10-01 10:28:00,
2013-10-01 06:35:00,50.7,39.8,29.77,West,265,0.0,0.0,66,0.00,,---,0.00,VWS V12.07,2013-10-01 10:35:00,
2013-10-01 06:41:00,50.7,40.2,29.80,West,265,0.0,0.0,67,0.00,,---,0.00,VWS V12.07,2013-10-01 10:41:00,
2013-10-01 06:47:00,50.9,40.3,29.80,West,265,0.0,0.0,67,0.00,,---,0.00,VWS V12.07,2013-10-01 10:47:00,
2013-10-01 06:53:00,51.1,40.9,29.80,West,265,0.0,0.0,68,0.00,,---,0.00,VWS V12.07,2013-10-01 10:53:00,
2013-10-01 06:59:00,51.3,41.1,29.80,West,265,0.0,0.0,68,0.00,,---,0.00,VWS V12.07,2013-10-01 10:59:00,
2013-10-01 07:05:00,51.4,41.2,29.80,West,265,0.0,0.0,68,0.00,,---,0.00,VWS V12.07,2013-10-01 11:05:00,
2013-10-01 07:11:00,51.6,41.8,29.80,ENE,65,0.0,4.0,69,0.00,,---,0.00,VWS V12.07,2013-10-01 11:11:00,
2013-10-01 07:17:00,52.0,42.1,29.80,West,279,0.0,0.0,69,0.00,,---,0.00,VWS V12.07,2013-10-01 11:17:00,
2013-10-01 07:23:00,52.2,42.3,29.80,NNW,330,0.0,5.4,69,0.00,,---,0.00,VWS V12.07,2013-10-01 11:23:00,
2013-10-01 07:29:00,52.5,43.0,29.80,North,353,0.0,5.4,70,0.00,,---,0.00,VWS V12.07,2013-10-01 11:29:00,
2013-10-01 07:34:00,52.9,43.4,29.80,North,353,0.0,0.0,70,0.00,,---,0.00,VWS V12.07,2013-10-01 11:34:00,
2013-10-01 07:41:00,53.2,43.7,29.80,North,353,0.0,0.0,70,0.00,,---,0.00,VWS V12.07,2013-10-01 11:41:00,
2013-10-01 07:47:00,53.6,44.1,29.80,North,350,0.0,0.0,70,0.00,,---,0.00,VWS V12.07,2013-10-01 11:47:00,
2013-10-01 07:52:00,54.0,44.4,29.80,North,353,0.0,2.7,70,0.00,,---,0.00,VWS V12.07,2013-10-01 11:52:00,
2013-10-01 07:58:00,54.5,44.9,29.80,SSE,154,0.0,3.6,70,0.00,,---,0.00,VWS V12.07,2013-10-01 11:58:00,
2013-10-01 08:04:00,54.9,45.3,29.80,East,84,0.0,2.7,70,0.00,,---,0.00,VWS V12.07,2013-10-01 12:04:00,
2013-10-01 08:10:00,55.4,45.4,29.80,East,84,0.0,2.7,69,0.00,,---,0.00,VWS V12.07,2013-10-01 12:10:00,
2013-10-01 08:16:00,55.8,45.4,29.80,East,89,0.0,0.0,68,0.00,,---,0.00,VWS V12.07,2013-10-01 12:16:00,
2013-10-01 08:22:00,56.1,44.9,29.80,ESE,114,0.0,0.0,66,0.00,,---,0.00,VWS V12.07,2013-10-01 12:22:00,
2013-10-01 08:28:00,56.3,44.7,29.80,ESE,114,0.0,0.0,65,0.00,,---,0.00,VWS V12.07,2013-10-01 12:28:00,
2013-10-01 08:34:00,56.7,43.8,29.80,NNW,338,0.0,3.1,62,0.00,,---,0.00,VWS V12.07,2013-10-01 12:34:00,
2013-10-01 08:40:00,57.2,43.0,29.80,NE,37,0.0,3.1,59,0.00,,---,0.00,VWS V12.07,2013-10-01 12:40:00,
2013-10-01 08:46:00,57.6,42.0,29.80,NE,38,0.0,0.0,56,0.00,,---,0.00,VWS V12.07,2013-10-01 12:46:00,
2013-10-01 08:52:00,58.1,41.1,29.80,WSW,240,0.0,4.0,53,0.00,,---,0.00,VWS V12.07,2013-10-01 12:52:00,
2013-10-01 08:57:00,58.5,40.9,29.80,West,264,0.0,4.5,52,0.00,,---,0.00,VWS V12.07,2013-10-01 12:57:00,
2013-10-01 09:03:00,59.4,40.7,29.80,WNW,292,0.0,3.1,50,0.00,,---,0.00,VWS V12.07,2013-10-01 13:03:00,
2013-10-01 09:09:00,61.2,41.9,29.80,NW,320,0.0,3.1,49,0.00,,---,0.00,VWS V12.07,2013-10-01 13:09:00,
2013-10-01 09:15:00,63.1,41.5,29.80,WNW,293,0.0,0.0,45,0.00,,---,0.00,VWS V12.07,2013-10-01 13:15:00,
2013-10-01 09:21:00,64.2,38.8,29.80,NW,306,0.0,4.9,39,0.00,,---,0.00,VWS V12.07,2013-10-01 13:21:00,
2013-10-01 09:27:00,64.8,36.5,29.80,NW,317,0.0,5.4,35,0.00,,---,0.00,VWS V12.07,2013-10-01 13:27:00,
2013-10-01 09:33:00,64.4,35.5,29.80,WNW,299,0.0,4.0,34,0.00,,---,0.00,VWS V12.07,2013-10-01 13:33:00,
2013-10-01 09:39:00,64.0,35.1,29.80,West,272,0.0,4.9,34,0.00,,---,0.00,VWS V12.07,2013-10-01 13:39:00,
2013-10-01 09:45:00,63.7,34.8,29.80,WSW,245,0.0,0.0,34,0.00,,---,0.00,VWS V12.07,2013-10-01 13:45:00,
2013-10-01 09:51:00,63.7,34.8,29.80,NNW,337,3.6,4.0,34,0.00,,---,0.00,VWS V12.07,2013-10-01 13:51:00,
2013-10-01 09:58:00,63.7,34.8,29.80,North,353,2.2,5.4,34,0.00,,---,0.00,VWS V12.07,2013-10-01 13:58:00,
2013-10-01 10:03:00,64.0,34.4,29.80,NW,313,0.0,0.0,33,0.00,,---,0.00,VWS V12.07,2013-10-01 14:03:00,
2013-10-01 10:09:00,64.4,34.7,29.80,NW,315,3.1,5.4,33,0.00,,---,0.00,VWS V12.07,2013-10-01 14:09:00,
2013-10-01 10:15:00,64.9,35.2,29.80,WNW,295,0.0,0.0,33,0.00,,---,0.00,VWS V12.07,2013-10-01 14:15:00,
2013-10-01 10:21:00,65.5,35.6,29.80,NNW,344,0.0,3.1,33,0.00,,---,0.00,VWS V12.07,2013-10-01 14:21:00,
2013-10-01 10:27:00,66.0,35.3,29.77,South,169,0.0,4.0,32,0.00,,---,0.00,VWS V12.07,2013-10-01 14:27:00,
2013-10-01 10:33:00,66.7,32.6,29.77,West,277,5.4,5.8,28,0.00,,---,0.00,VWS V12.07,2013-10-01 14:33:00,
2013-10-01 10:39:00,67.3,33.1,29.77,WNW,290,0.0,5.8,28,0.00,,---,0.00,VWS V12.07,2013-10-01 14:39:00,
2013-10-01 10:45:00,68.0,32.8,29.77,WSW,248,2.7,5.8,27,0.00,,---,0.00,VWS V12.07,2013-10-01 14:45:00,
2013-10-01 10:51:00,68.5,32.3,29.77,West,266,0.0,5.8,26,0.00,,---,0.00,VWS V12.07,2013-10-01 14:51:00,
2013-10-01 10:59:00,69.4,32.1,29.77,NW,326,0.0,8.7,25,0.00,,---,0.00,VWS V12.07,2013-10-01 14:59:00,
2013-10-01 11:06:00,71.1,31.4,29.77,NW,315,2.7,8.3,23,0.00,,---,0.00,VWS V12.07,2013-10-01 15:06:00,
2013-10-01 11:11:00,72.0,31.1,29.77,WSW,248,7.2,8.3,22,0.00,,---,0.00,VWS V12.07,2013-10-01 15:11:00,
2013-10-01 11:18:00,72.7,31.7,29.77,NW,314,2.7,3.1,22,0.00,,---,0.00,VWS V12.07,2013-10-01 15:18:00,
2013-10-01 11:24:00,73.2,32.1,29.77,WNW,294,3.1,5.8,22,0.00,,---,0.00,VWS V12.07,2013-10-01 15:24:00,
2013-10-01 11:29:00,74.1,31.7,29.77,WNW,295,2.7,6.3,21,0.00,,---,0.00,VWS V12.07,2013-10-01 15:29:00,
2013-10-01 11:35:00,74.8,32.3,29.77,NW,307,3.1,5.4,21,0.00,,---,0.00,VWS V12.07,2013-10-01 15:35:00,
2013-10-01 11:42:00,75.0,32.5,29.77,NNW,342,0.0,7.2,21,0.00,,---,0.00,VWS V12.07,2013-10-01 15:42:00,
2013-10-01 11:48:00,75.2,32.6,29.77,NW,304,3.1,3.1,21,0.00,,---,0.00,VWS V12.07,2013-10-01 15:48:00,
2013-10-01 11:54:00,75.4,32.8,29.77,WNW,289,0.0,4.0,21,0.00,,---,0.00,VWS V12.07,2013-10-01 15:54:00,
2013-10-01 12:00:00,75.6,32.9,29.77,NW,315,0.0,0.0,21,0.00,,---,0.00,VWS V12.07,2013-10-01 16:00:00,
2013-10-01 12:06:00,75.9,33.2,29.77,WSW,239,0.0,5.4,21,0.00,,---,0.00,VWS V12.07,2013-10-01 16:06:00,
2013-10-01 12:12:00,75.9,32.0,29.77,WNW,283,0.0,5.4,20,0.00,,---,0.00,VWS V12.07,2013-10-01 16:12:00,
2013-10-01 12:18:00,76.1,32.2,29.77,WNW,297,0.0,3.1,20,0.00,,---,0.00,VWS V12.07,2013-10-01 16:18:00,
2013-10-01 12:24:00,76.6,32.6,29.77,WNW,293,3.6,5.8,20,0.00,,---,0.00,VWS V12.07,2013-10-01 16:24:00,
2013-10-01 12:30:00,76.8,32.8,29.74,ESE,114,0.0,0.0,20,0.00,,---,0.00,VWS V12.07,2013-10-01 16:30:00,
2013-10-01 12:36:00,76.8,32.8,29.74,East,92,0.0,3.6,20,0.00,,---,0.00,VWS V12.07,2013-10-01 16:36:00,
2013-10-01 12:42:00,77.0,32.9,29.74,NW,310,0.0,3.6,20,0.00,,---,0.00,VWS V12.07,2013-10-01 16:42:00,
2013-10-01 12:48:00,77.5,33.3,29.74,WNW,292,3.1,4.9,20,0.00,,---,0.00,VWS V12.07,2013-10-01 16:48:00,
2013-10-01 12:54:00,78.3,31.3,29.74,West,261,2.2,4.9,18,0.00,,---,0.00,VWS V12.07,2013-10-01 16:54:00,
2013-10-01 13:00:00,78.6,31.6,29.74,WNW,299,0.0,0.0,18,0.00,,---,0.00,VWS V12.07,2013-10-01 17:00:00,
2013-10-01 13:06:00,78.8,30.4,29.74,South,170,3.1,4.9,17,0.00,,---,0.00,VWS V12.07,2013-10-01 17:06:00,
2013-10-01 13:12:00,78.8,30.4,29.74,NW,319,0.0,4.9,17,0.00,,---,0.00,VWS V12.07,2013-10-01 17:12:00,
2013-10-01 13:18:00,78.6,31.6,29.74,NW,316,0.0,4.0,18,0.00,,---,0.00,VWS V12.07,2013-10-01 17:18:00,
2013-10-01 13:24:00,79.0,30.5,29.74,WSW,246,0.0,4.9,17,0.00,,---,0.00,VWS V12.07,2013-10-01 17:24:00,
2013-10-01 13:30:00,79.2,30.6,29.71,SW,226,0.0,0.0,17,0.00,,---,0.00,VWS V12.07,2013-10-01 17:30:00,
2013-10-01 13:36:00,79.3,30.8,29.71,West,275,0.0,4.9,17,0.00,,---,0.00,VWS V12.07,2013-10-01 17:36:00,
2013-10-01 13:42:00,79.3,30.8,29.71,WNW,296,4.9,4.9,17,0.00,,---,0.00,VWS V12.07,2013-10-01 17:42:00,
2013-10-01 13:48:00,79.5,30.9,29.71,East,91,0.0,3.6,17,0.00,,---,0.00,VWS V12.07,2013-10-01 17:48:00,
2013-10-01 13:54:00,79.7,31.1,29.71,NNW,341,0.0,5.4,17,0.00,,---,0.00,VWS V12.07,2013-10-01 17:54:00,
2013-10-01 14:00:00,79.9,31.2,29.71,East,81,0.0,0.0,17,0.00,,---,0.00,VWS V12.07,2013-10-01 18:00:00,
2013-10-01 14:06:00,79.9,31.2,29.71,WSW,249,2.7,5.4,17,0.00,,---,0.00,VWS V12.07,2013-10-01 18:06:00,
2013-10-01 14:14:00,79.9,31.2,29.71,NW,313,0.0,5.4,17,0.00,,---,0.00,VWS V12.07,2013-10-01 18:14:00,
2013-10-01 14:20:00,79.9,31.2,29.71,WNW,298,0.0,5.8,17,0.00,,---,0.00,VWS V12.07,2013-10-01 18:20:00,
2013-10-01 14:26:00,80.2,31.5,29.71,NW,321,0.0,8.1,17,0.00,,---,0.00,VWS V12.07,2013-10-01 18:26:00,
2013-10-01 14:32:00,80.6,31.8,29.71,West,277,0.0,0.0,17,0.00,,---,0.00,VWS V12.07,2013-10-01 18:32:00,
2013-10-01 14:38:00,80.6,31.8,29.71,NW,315,0.0,4.9,17,0.00,,---,0.00,VWS V12.07,2013-10-01 18:38:00,
2013-10-01 14:44:00,80.6,31.8,29.71,WNW,286,0.0,8.1,17,0.00,,---,0.00,VWS V12.07,2013-10-01 18:44:00,
2013-10-01 14:50:00,80.1,31.4,29.71,West,265,0.0,3.6,17,0.00,,---,0.00,VWS V12.07,2013-10-01 18:50:00,
2013-10-01 14:56:00,79.0,30.5,29.71,NW,318,0.0,5.8,17,0.00,,---,0.00,VWS V12.07,2013-10-01 18:56:00,
2013-10-01 15:02:00,78.1,31.2,29.71,NNW,337,0.0,3.6,18,0.00,,---,0.00,VWS V12.07,2013-10-01 19:02:00,
2013-10-01 15:08:00,77.4,30.6,29.71,ESE,103,0.0,3.6,18,0.00,,---,0.00,VWS V12.07,2013-10-01 19:08:00,
2013-10-01 15:15:00,76.8,30.1,29.68,WNW,285,0.0,0.0,18,0.00,,---,0.00,VWS V12.07,2013-10-01 19:15:00,
2013-10-01 15:21:00,76.5,29.9,29.68,WSW,240,0.0,4.0,18,0.00,,---,0.00,VWS V12.07,2013-10-01 19:21:00,
2013-10-01 15:27:00,76.3,29.7,29.68,West,272,0.0,4.9,18,0.00,,---,0.00,VWS V12.07,2013-10-01 19:27:00,
2013-10-01 15:33:00,76.1,29.6,29.68,WNW,295,0.0,3.6,18,0.00,,---,0.00,VWS V12.07,2013-10-01 19:33:00,
2013-10-01 15:39:00,75.9,29.4,29.68,WNW,293,0.0,3.6,18,0.00,,---,0.00,VWS V12.07,2013-10-01 19:39:00,
2013-10-01 15:45:00,75.9,29.4,29.68,NW,322,0.0,0.0,18,0.00,,---,0.00,VWS V12.07,2013-10-01 19:45:00,
2013-10-01 15:51:00,75.9,29.4,29.68,ENE,68,0.0,0.0,18,0.00,,---,0.00,VWS V12.07,2013-10-01 19:51:00,
2013-10-01 16:00:00,75.7,29.3,29.68,West,281,0.0,0.0,18,0.00,,---,0.00,VWS V12.07,2013-10-01 20:00:00,
2013-10-01 16:06:00,75.7,29.3,29.68,West,259,0.0,2.2,18,0.00,,---,0.00,VWS V12.07,2013-10-01 20:06:00,
2013-10-01 16:12:00,75.6,29.1,29.68,West,268,2.2,3.1,18,0.00,,---,0.00,VWS V12.07,2013-10-01 20:12:00,
2013-10-01 16:18:00,75.6,29.1,29.68,SW,230,0.0,0.0,18,0.00,,---,0.00,VWS V12.07,2013-10-01 20:18:00,
2013-10-01 16:24:00,75.4,29.0,29.68,SW,229,0.0,0.0,18,0.00,,---,0.00,VWS V12.07,2013-10-01 20:24:00,
2013-10-01 16:30:00,75.2,28.8,29.68,WSW,257,4.0,4.0,18,0.00,,---,0.00,VWS V12.07,2013-10-01 20:30:00,
2013-10-01 16:36:00,75.2,28.8,29.68,WNW,285,0.0,4.9,18,0.00,,---,0.00,VWS V12.07,2013-10-01 20:36:00,
2013-10-01 16:42:00,75.0,28.7,29.68,NW,308,2.7,4.9,18,0.00,,---,0.00,VWS V12.07,2013-10-01 20:42:00,
2013-10-01 16:48:00,75.0,28.7,29.68,NW,308,0.0,0.0,18,0.00,,---,0.00,VWS V12.07,2013-10-01 20:48:00,
2013-10-01 16:54:00,74.8,28.5,29.68,NW,308,0.0,0.0,18,0.00,,---,0.00,VWS V12.07,2013-10-01 20:54:00,
2013-10-01 17:00:00,74.8,28.5,29.68,NW,308,0.0,0.0,18,0.00,,---,0.00,VWS V12.07,2013-10-01 21:00:00,
2013-10-01 17:06:00,74.7,28.4,29.68,NW,308,0.0,0.0,18,0.00,,---,0.00,VWS V12.07,2013-10-01 21:06:00,
2013-10-01 17:12:00,74.5,28.2,29.71,NW,309,0.0,0.0,18,0.00,,---,0.00,VWS V12.07,2013-10-01 21:12:00,
2013-10-01 17:18:00,74.5,28.2,29.71,NNW,341,0.0,0.0,18,0.00,,---,0.00,VWS V12.07,2013-10-01 21:18:00,
2013-10-01 17:24:00,73.9,27.8,29.71,NNE,33,0.0,0.0,18,0.00,,---,0.00,VWS V12.07,2013-10-01 21:24:00,
2013-10-01 17:30:00,72.9,28.2,29.71,NE,50,0.0,0.0,19,0.00,,---,0.00,VWS V12.07,2013-10-01 21:30:00,
2013-10-01 17:36:00,72.5,27.9,29.71,NE,50,0.0,0.0,19,0.00,,---,0.00,VWS V12.07,2013-10-01 21:36:00,
2013-10-01 17:42:00,72.1,27.6,29.71,NE,50,0.0,0.0,19,0.00,,---,0.00,VWS V12.07,2013-10-01 21:42:00,
2013-10-01 17:51:00,71.2,26.9,29.71,NE,50,0.0,0.0,19,0.00,,---,0.00,VWS V12.07,2013-10-01 21:51:00,
2013-10-01 17:57:00,70.9,26.6,29.71,NE,50,0.0,0.0,19,0.00,,---,0.00,VWS V12.07,2013-10-01 21:57:00,
2013-10-01 18:03:00,70.7,26.5,29.71,NE,50,0.0,0.0,19,0.00,,---,0.00,VWS V12.07,2013-10-01 22:03:00,
2013-10-01 18:09:00,70.3,26.2,29.71,NE,50,0.0,0.0,19,0.00,,---,0.00,VWS V12.07,2013-10-01 22:09:00,
2013-10-01 18:15:00,70.3,26.2,29.71,NE,50,0.0,0.0,19,0.00,,---,0.00,VWS V12.07,2013-10-01 22:15:00,
2013-10-01 18:21:00,70.0,25.9,29.71,SE,132,0.0,2.7,19,0.00,,---,0.00,VWS V12.07,2013-10-01 22:21:00,
2013-10-01 18:27:00,69.8,29.3,29.68,SE,133,0.0,2.7,22,0.00,,---,0.00,VWS V12.07,2013-10-01 22:27:00,
2013-10-01 18:33:00,69.4,29.0,29.68,SE,132,0.0,0.0,22,0.00,,---,0.00,VWS V12.07,2013-10-01 22:33:00,
2013-10-01 18:39:00,69.3,28.8,29.68,SE,133,0.0,0.0,22,0.00,,---,0.00,VWS V12.07,2013-10-01 22:39:00,
2013-10-01 18:45:00,69.1,28.7,29.71,SE,132,0.0,0.0,22,0.00,,---,0.00,VWS V12.07,2013-10-01 22:45:00,
2013-10-01 18:51:00,69.1,28.7,29.71,SE,133,0.0,0.0,22,0.00,,---,0.00,VWS V12.07,2013-10-01 22:51:00,
2013-10-01 18:57:00,68.7,28.4,29.71,SE,132,0.0,0.0,22,0.00,,---,0.00,VWS V12.07,2013-10-01 22:57:00,
2013-10-01 19:03:00,68.4,28.1,29.71,SE,133,0.0,0.0,22,0.00,,---,0.00,VWS V12.07,2013-10-01 23:03:00,
2013-10-01 19:09:00,67.8,28.7,29.71,SE,133,0.0,0.0,23,0.00,,---,0.00,VWS V12.07,2013-10-01 23:09:00,
2013-10-01 19:15:00,67.6,28.5,29.71,SE,133,0.0,0.0,23,0.00,,---,0.00,VWS V12.07,2013-10-01 23:15:00,
2013-10-01 19:21:00,67.3,28.2,29.71,SE,132,0.0,0.0,23,0.00,,---,0.00,VWS V12.07,2013-10-01 23:21:00,
2013-10-01 19:27:00,66.7,27.8,29.71,SE,132,0.0,0.0,23,0.00,,---,0.00,VWS V12.07,2013-10-01 23:27:00,
2013-10-01 19:33:00,66.4,27.5,29.71,SE,133,0.0,0.0,23,0.00,,---,0.00,VWS V12.07,2013-10-01 23:33:00,
2013-10-01 19:39:00,65.8,28.1,29.71,SE,132,0.0,0.0,24,0.00,,---,0.00,VWS V12.07,2013-10-01 23:39:00,
2013-10-01 19:45:00,65.3,27.6,29.71,SE,132,0.0,0.0,24,0.00,,---,0.00,VWS V12.07,2013-10-01 23:45:00,
2013-10-01 19:51:00,64.8,28.1,29.71,SE,132,0.0,0.0,25,0.00,,---,0.00,VWS V12.07,2013-10-01 23:51:00,
2013-10-01 19:57:00,64.4,27.8,29.71,SE,132,0.0,0.0,25,0.00,,---,0.00,VWS V12.07,2013-10-01 23:57:00,
2013-10-01 20:03:00,64.2,28.6,29.71,SE,133,0.0,0.0,26,0.00,,---,0.00,VWS V12.07,2013-10-02 00:03:00,
2013-10-01 20:09:00,64.2,28.6,29.71,SE,132,0.0,0.0,26,0.00,,---,0.00,VWS V12.07,2013-10-02 00:09:00,
2013-10-01 20:15:00,64.2,28.6,29.71,SE,132,0.0,0.0,26,0.00,,---,0.00,VWS V12.07,2013-10-02 00:15:00,
2013-10-01 20:21:00,64.2,29.6,29.71,SE,132,0.0,0.0,27,0.00,,---,0.00,VWS V12.07,2013-10-02 00:21:00,
2013-10-01 20:26:00,64.0,29.4,29.71,SE,132,0.0,0.0,27,0.00,,---,0.00,VWS V12.07,2013-10-02 00:26:00,
2013-10-01 20:32:00,63.9,29.3,29.71,SE,132,0.0,0.0,27,0.00,,---,0.00,VWS V12.07,2013-10-02 00:32:00,
2013-10-01 20:38:00,63.7,29.1,29.71,SE,132,0.0,0.0,27,0.00,,---,0.00,VWS V12.07,2013-10-02 00:38:00,
2013-10-01 20:44:00,63.7,30.0,29.74,SE,133,0.0,0.0,28,0.00,,---,0.00,VWS V12.07,2013-10-02 00:44:00,
2013-10-01 20:50:00,63.5,29.8,29.74,SE,132,0.0,0.0,28,0.00,,---,0.00,VWS V12.07,2013-10-02 00:50:00,
2013-10-01 20:56:00,63.3,29.7,29.74,SE,132,0.0,0.0,28,0.00,,---,0.00,VWS V12.07,2013-10-02 00:56:00,
2013-10-01 21:02:00,63.3,29.7,29.74,SE,132,0.0,0.0,28,0.00,,---,0.00,VWS V12.07,2013-10-02 01:02:00,
2013-10-01 21:08:00,63.1,29.5,29.74,SE,132,0.0,0.0,28,0.00,,---,0.00,VWS V12.07,2013-10-02 01:08:00,
2013-10-01 21:14:00,63.1,30.4,29.74,SE,132,0.0,0.0,29,0.00,,---,0.00,VWS V12.07,2013-10-02 01:14:00,
2013-10-01 21:20:00,63.1,30.4,29.74,SE,132,0.0,0.0,29,0.00,,---,0.00,VWS V12.07,2013-10-02 01:20:00,
2013-10-01 21:26:00,63.0,30.2,29.74,SE,132,0.0,0.0,29,0.00,,---,0.00,VWS V12.07,2013-10-02 01:26:00,
2013-10-01 21:32:00,62.6,30.8,29.74,SE,133,0.0,0.0,30,0.00,,---,0.00,VWS V12.07,2013-10-02 01:32:00,
2013-10-01 21:38:00,62.4,31.4,29.74,SE,132,0.0,0.0,31,0.00,,---,0.00,VWS V12.07,2013-10-02 01:38:00,
2013-10-01 21:44:00,62.6,31.6,29.74,SE,132,0.0,0.0,31,0.00,,---,0.00,VWS V12.07,2013-10-02 01:44:00,
2013-10-01 21:50:00,62.6,31.6,29.74,SE,132,0.0,0.0,31,0.00,,---,0.00,VWS V12.07,2013-10-02 01:50:00,
2013-10-01 21:56:00,62.6,32.3,29.74,SE,133,0.0,0.0,32,0.00,,---,0.00,VWS V12.07,2013-10-02 01:56:00,
2013-10-01 22:02:00,62.2,32.0,29.74,ENE,64,0.0,0.0,32,0.00,,---,0.00,VWS V12.07,2013-10-02 02:02:00,
2013-10-01 22:10:00,62.2,32.8,29.74,NW,310,0.0,0.0,33,0.00,,---,0.00,VWS V12.07,2013-10-02 02:10:00,
2013-10-01 22:16:00,62.2,33.5,29.74,WNW,288,0.0,0.0,34,0.00,,---,0.00,VWS V12.07,2013-10-02 02:16:00,
2013-10-01 22:22:00,62.1,33.4,29.74,WNW,287,0.0,0.0,34,0.00,,---,0.00,VWS V12.07,2013-10-02 02:22:00,
2013-10-01 22:28:00,62.1,33.4,29.74,NW,305,0.0,0.0,34,0.00,,---,0.00,VWS V12.07,2013-10-02 02:28:00,
2013-10-01 22:34:00,62.1,33.4,29.74,NW,305,0.0,0.0,34,0.00,,---,0.00,VWS V12.07,2013-10-02 02:34:00,
2013-10-01 22:40:00,61.9,33.2,29.71,NW,305,0.0,0.0,34,0.00,,---,0.00,VWS V12.07,2013-10-02 02:40:00,
2013-10-01 22:46:00,62.1,33.4,29.71,NW,305,0.0,0.0,34,0.00,,---,0.00,VWS V12.07,2013-10-02 02:46:00,
2013-10-01 22:52:00,62.1,33.4,29.71,NW,305,0.0,0.0,34,0.00,,---,0.00,VWS V12.07,2013-10-02 02:52:00,
2013-10-01 22:58:00,62.1,33.4,29.74,NW,304,0.0,0.0,34,0.00,,---,0.00,VWS V12.07,2013-10-02 02:58:00,
2013-10-01 23:04:00,62.1,33.4,29.74,NW,304,0.0,0.0,34,0.00,,---,0.00,VWS V12.07,2013-10-02 03:04:00,
2013-10-01 23:10:00,62.2,33.5,29.71,NW,304,0.0,0.0,34,0.00,,---,0.00,VWS V12.07,2013-10-02 03:10:00,
2013-10-01 23:16:00,62.2,33.5,29.71,NW,305,0.0,0.0,34,0.00,,---,0.00,VWS V12.07,2013-10-02 03:16:00,
2013-10-01 23:22:00,62.2,33.5,29.71,NW,305,0.0,0.0,34,0.00,,---,0.00,VWS V12.07,2013-10-02 03:22:00,
2013-10-01 23:28:00,62.2,33.5,29.71,NW,304,0.0,0.0,34,0.00,,---,0.00,VWS V12.07,2013-10-02 03:28:00,
2013-10-01 23:34:00,62.2,33.5,29.71,NW,304,0.0,0.0,34,0.00,,---,0.00,VWS V12.07,2013-10-02 03:34:00,
2013-10-01 23:40:00,62.2,33.5,29.71,NW,305,0.0,0.0,34,0.00,,---,0.00,VWS V12.07,2013-10-02 03:40:00,
2013-10-01 23:46:00,62.1,33.4,29.71,NW,304,0.0,0.0,34,0.00,,---,0.00,VWS V12.07,2013-10-02 03:46:00,
2013-10-01 23:52:00,61.9,33.2,29.71,NW,305,0.0,0.0,34,0.00,,---,0.00,VWS V12.07,2013-10-02 03:52:00,
2013-10-01 23:58:00,61.7,33.8,29.71,NW,304,0.0,0.0,35,0.00,,---,0.00,VWS V12.07,2013-10-02 03:58:00,